Time,TemperatureF,DewpointF,PressureIn,WindDirection,WindDirectionDegrees,WindSpeedMPH,WindSpeedGustMPH,Humidity,HourlyPrecipIn,Conditions,Clouds,dailyrainin,SoftwareType,DateUTC
2013-01-26 00:00:00,61.1,47.6,29.93,SE,131,0.0,1.0,61,0.00,,SKC,0.00,VWS V14.01,2013-01-26 07:00:00,
2013-01-26 00:02:00,61.1,47.6,29.93,SE,131,0.0,1.0,61,0.00,,SKC,0.00,VWS V14.01,2013-01-26 07:02:00,
2013-01-26 00:07:00,61.2,47.7,29.93,SE,130,0.0,0.0,61,0.00,,SKC,0.00,VWS V14.01,2013-01-26 07:07:00,
2013-01-26 00:12:00,61.2,47.7,29.93,SE,132,0.0,0.0,61,0.00,,SKC,0.00,VWS V14.01,2013-01-26 07:12:00,
2013-01-26 00:15:00,61.2,48.1,29.93,SE,132,0.0,0.0,62,0.00,,SKC,0.00,VWS V14.01,2013-01-26 07:15:00,
2013-01-26 00:17:00,61.2,48.1,29.93,SE,132,0.0,0.0,62,0.00,,SKC,0.00,VWS V14.01,2013-01-26 07:17:00,
2013-01-26 00:22:00,61.2,48.1,29.92,SE,132,0.0,0.0,62,0.00,,SKC,0.00,VWS V14.01,2013-01-26 07:22:00,
2013-01-26 00:28:00,61.0,48.3,29.92,SE,132,0.0,0.0,63,0.00,,SKC,0.00,VWS V14.01,2013-01-26 07:28:00,
2013-01-26 00:30:00,60.9,48.7,29.92,SE,130,0.0,0.0,64,0.00,,SKC,0.00,VWS V14.01,2013-01-26 07:30:00,
2013-01-26 00:33:00,60.9,48.7,29.92,SE,131,0.0,0.0,64,0.00,,SKC,0.00,VWS V14.01,2013-01-26 07:33:00,
2013-01-26 00:38:00,60.9,48.7,29.92,SE,131,0.0,0.0,64,0.00,,SKC,0.00,VWS V14.01,2013-01-26 07:38:00,
2013-01-26 00:43:00,60.8,48.6,29.91,SE,131,0.0,0.0,64,0.00,,SKC,0.00,VWS V14.01,2013-01-26 07:43:00,
2013-01-26 00:45:00,60.7,48.5,29.92,SE,130,0.0,0.0,64,0.00,,SKC,0.00,VWS V14.01,2013-01-26 07:45:00,
2013-01-26 00:48:00,60.7,48.5,29.92,SE,131,0.0,0.0,64,0.00,,SKC,0.00,VWS V14.01,2013-01-26 07:48:00,
2013-01-26 00:53:00,60.7,48.0,29.91,SE,131,0.0,0.0,63,0.00,,SKC,0.00,VWS V14.01,2013-01-26 07:53:00,
2013-01-26 00:58:00,60.9,48.7,29.92,SE,130,0.0,0.0,64,0.00,,SKC,0.00,VWS V14.01,2013-01-26 07:58:00,
2013-01-26 01:00:00,60.9,48.7,29.92,SE,131,0.0,0.0,64,0.00,,SKC,0.00,VWS V14.01,2013-01-26 08:00:00,
2013-01-26 01:04:00,60.9,48.7,29.92,SE,131,0.0,0.0,64,0.00,,SKC,0.00,VWS V14.01,2013-01-26 08:04:00,
2013-01-26 01:09:00,61.0,48.3,29.92,SE,132,0.0,0.0,63,0.00,,SKC,0.00,VWS V14.01,2013-01-26 08:09:00,
2013-01-26 01:14:00,61.1,48.4,29.92,SE,132,0.0,0.0,63,0.00,,SKC,0.00,VWS V14.01,2013-01-26 08:14:00,
2013-01-26 01:15:00,61.2,48.1,29.92,SE,131,0.0,0.0,62,0.00,,SKC,0.00,VWS V14.01,2013-01-26 08:15:00,
2013-01-26 01:19:00,61.2,48.1,29.92,SE,130,0.0,0.0,62,0.00,,SKC,0.00,VWS V14.01,2013-01-26 08:19:00,
2013-01-26 01:24:00,61.3,48.2,29.91,SE,131,0.0,0.0,62,0.00,,SKC,0.00,VWS V14.01,2013-01-26 08:24:00,
2013-01-26 01:29:00,61.4,47.8,29.91,SE,130,0.0,0.0,61,0.00,,SKC,0.00,VWS V14.01,2013-01-26 08:29:00,
2013-01-26 01:30:00,61.5,47.9,29.91,SE,130,0.0,0.0,61,0.00,,SKC,0.00,VWS V14.01,2013-01-26 08:30:00,
2013-01-26 01:34:00,61.6,48.0,29.91,SE,131,0.0,0.0,61,0.00,,SKC,0.00,VWS V14.01,2013-01-26 08:34:00,
2013-01-26 01:39:00,61.6,48.0,29.90,SE,131,0.0,0.0,61,0.00,,SKC,0.00,VWS V14.01,2013-01-26 08:39:00,
2013-01-26 01:44:00,61.5,48.4,29.90,SE,131,0.0,0.0,62,0.00,,SKC,0.00,VWS V14.01,2013-01-26 08:44:00,
2013-01-26 01:45:00,61.4,47.8,29.90,SE,130,0.0,0.0,61,0.00,,SKC,0.00,VWS V14.01,2013-01-26 08:45:00,
2013-01-26 01:50:00,61.4,47.8,29.90,SE,130,0.0,0.0,61,0.00,,SKC,0.00,VWS V14.01,2013-01-26 08:50:00,
2013-01-26 01:55:00,61.4,47.8,29.90,SE,131,0.0,1.0,61,0.00,,SKC,0.00,VWS V14.01,2013-01-26 08:55:00,
2013-01-26 02:00:00,61.4,47.4,29.90,SE,130,0.0,1.0,60,0.00,,SKC,0.00,VWS V14.01,2013-01-26 09:00:00,
2013-01-26 02:05:00,61.4,47.4,29.90,SE,131,0.0,0.0,60,0.00,,SKC,0.00,VWS V14.01,2013-01-26 09:05:00,
2013-01-26 02:10:00,61.5,47.5,29.90,SE,131,0.0,0.0,60,0.00,,SKC,0.00,VWS V14.01,2013-01-26 09:10:00,
2013-01-26 02:15:00,61.6,47.6,29.90,SE,131,0.0,0.0,60,0.00,,SKC,0.00,VWS V14.01,2013-01-26 09:15:00,
2013-01-26 02:20:00,61.6,47.6,29.90,SE,131,0.0,0.0,60,0.00,,SKC,0.00,VWS V14.01,2013-01-26 09:20:00,
2013-01-26 02:25:00,61.4,47.0,29.90,SE,131,0.0,0.0,59,0.00,,SKC,0.00,VWS V14.01,2013-01-26 09:25:00,
2013-01-26 02:30:00,61.5,47.1,29.90,SE,130,0.0,0.0,59,0.00,,SKC,0.00,VWS V14.01,2013-01-26 09:30:00,
2013-01-26 02:35:00,61.5,47.1,29.90,SE,132,0.0,0.0,59,0.00,,SKC,0.00,VWS V14.01,2013-01-26 09:35:00,
2013-01-26 02:41:00,61.3,47.8,29.90,SE,132,0.0,0.0,61,0.00,,SKC,0.00,VWS V14.01,2013-01-26 09:41:00,
2013-01-26 02:45:00,61.1,48.0,29.90,SE,132,0.0,0.0,62,0.00,,SKC,0.00,VWS V14.01,2013-01-26 09:45:00,
2013-01-26 02:46:00,61.1,47.6,29.90,SE,132,0.0,0.0,61,0.00,,SKC,0.00,VWS V14.01,2013-01-26 09:46:00,
2013-01-26 02:51:00,60.8,47.7,29.90,SE,132,0.0,0.0,62,0.00,,SKC,0.00,VWS V14.01,2013-01-26 09:51:00,
2013-01-26 02:56:00,60.6,48.0,29.90,SE,132,0.0,0.0,63,0.00,,SKC,0.00,VWS V14.01,2013-01-26 09:56:00,
2013-01-26 03:00:00,60.3,48.1,29.89,SE,132,0.0,0.0,64,0.00,,SKC,0.00,VWS V14.01,2013-01-26 10:00:00,
2013-01-26 03:01:00,60.4,47.8,29.89,SE,132,0.0,0.0,63,0.00,,SKC,0.00,VWS V14.01,2013-01-26 10:01:00,
2013-01-26 03:06:00,60.1,48.3,29.89,SE,131,0.0,0.0,65,0.00,,SKC,0.00,VWS V14.01,2013-01-26 10:06:00,
2013-01-26 03:11:00,59.8,49.2,29.90,SE,130,0.0,0.0,68,0.00,,SKC,0.00,VWS V14.01,2013-01-26 10:11:00,
2013-01-26 03:15:00,59.4,50.0,29.89,SE,130,0.0,1.0,71,0.00,,SKC,0.00,VWS V14.01,2013-01-26 10:15:00,
2013-01-26 03:16:00,59.4,49.6,29.89,SE,130,0.0,1.0,70,0.00,,SKC,0.00,VWS V14.01,2013-01-26 10:16:00,
2013-01-26 03:22:00,59.0,51.1,29.89,SE,132,0.0,2.0,75,0.00,,SKC,0.00,VWS V14.01,2013-01-26 10:22:00,
2013-01-26 03:27:00,58.5,50.6,29.89,ESE,121,0.0,2.0,75,0.00,,SKC,0.00,VWS V14.01,2013-01-26 10:27:00,
2013-01-26 03:30:00,58.4,50.9,29.88,East,87,0.0,3.0,76,0.00,,SKC,0.00,VWS V14.01,2013-01-26 10:30:00,
2013-01-26 03:32:00,58.4,50.5,29.88,East,87,0.0,3.0,75,0.00,,SKC,0.00,VWS V14.01,2013-01-26 10:32:00,
2013-01-26 03:37:00,58.2,51.0,29.88,East,88,0.0,0.0,77,0.00,,SKC,0.00,VWS V14.01,2013-01-26 10:37:00,
2013-01-26 03:42:00,58.1,51.3,29.88,East,88,0.0,0.0,78,0.00,,SKC,0.00,VWS V14.01,2013-01-26 10:42:00,
2013-01-26 03:45:00,58.1,50.6,29.88,East,88,0.0,1.0,76,0.00,,SKC,0.00,VWS V14.01,2013-01-26 10:45:00,
2013-01-26 03:47:00,58.1,50.6,29.88,East,88,0.0,1.0,76,0.00,,SKC,0.00,VWS V14.01,2013-01-26 10:47:00,
2013-01-26 03:52:00,58.3,50.4,29.88,East,87,0.0,0.0,75,0.00,,SKC,0.00,VWS V14.01,2013-01-26 10:52:00,
2013-01-26 03:57:00,59.0,50.7,29.88,East,88,0.0,0.0,74,0.00,,SKC,0.00,VWS V14.01,2013-01-26 10:57:00,
2013-01-26 04:00:00,59.0,50.4,29.88,East,90,0.0,1.0,73,0.00,,SKC,0.00,VWS V14.01,2013-01-26 11:00:00,
2013-01-26 04:02:00,59.0,50.4,29.88,East,90,0.0,1.0,73,0.00,,SKC,0.00,VWS V14.01,2013-01-26 11:02:00,
2013-01-26 04:07:00,59.0,51.5,29.88,East,90,0.0,1.0,76,0.00,,SKC,0.00,VWS V14.01,2013-01-26 11:07:00,
2013-01-26 04:12:00,59.0,52.2,29.88,East,90,0.0,1.0,78,0.01,,SKC,0.01,VWS V14.01,2013-01-26 11:12:00,
2013-01-26 04:15:00,59.0,52.2,29.88,East,90,0.0,1.0,78,0.01,,SKC,0.01,VWS V14.01,2013-01-26 11:15:00,
2013-01-26 04:17:00,59.0,52.2,29.88,East,90,0.0,0.0,78,0.01,,SKC,0.01,VWS V14.01,2013-01-26 11:17:00,
2013-01-26 04:22:00,58.9,52.4,29.88,East,90,0.0,0.0,79,0.02,,SKC,0.02,VWS V14.01,2013-01-26 11:22:00,
2013-01-26 04:27:00,58.7,52.6,29.88,East,90,0.0,0.0,80,0.03,,SKC,0.03,VWS V14.01,2013-01-26 11:27:00,
2013-01-26 04:30:00,58.4,52.6,29.88,East,90,0.0,0.0,81,0.04,,SKC,0.04,VWS V14.01,2013-01-26 11:30:00,
2013-01-26 04:32:00,58.4,52.6,29.88,East,90,0.0,0.0,81,0.04,,SKC,0.04,VWS V14.01,2013-01-26 11:32:00,
2013-01-26 04:37:00,58.1,52.6,29.88,East,87,0.0,2.0,82,0.04,,SKC,0.04,VWS V14.01,2013-01-26 11:37:00,
2013-01-26 04:42:00,57.7,52.6,29.88,NE,42,0.0,4.0,83,0.05,,SKC,0.05,VWS V14.01,2013-01-26 11:42:00,
2013-01-26 04:45:00,57.5,52.1,29.88,NNE,32,0.0,4.0,82,0.05,,SKC,0.05,VWS V14.01,2013-01-26 11:45:00,
2013-01-26 04:47:00,57.4,52.0,29.88,NNE,32,0.0,0.0,82,0.05,,SKC,0.05,VWS V14.01,2013-01-26 11:47:00,
2013-01-26 04:52:00,57.3,51.9,29.88,NNE,27,1.0,2.0,82,0.06,,SKC,0.06,VWS V14.01,2013-01-26 11:52:00,
2013-01-26 04:58:00,56.9,51.5,29.88,NNE,27,2.0,3.0,82,0.06,,SKC,0.06,VWS V14.01,2013-01-26 11:58:00,
2013-01-26 05:00:00,56.5,51.1,29.88,NNE,18,4.0,4.0,82,0.08,,SKC,0.08,VWS V14.01,2013-01-26 12:00:00,
2013-01-26 05:02:00,56.5,51.1,29.88,NNE,17,2.0,3.0,82,0.08,,SKC,0.08,VWS V14.01,2013-01-26 12:02:00,
2013-01-26 05:08:00,56.2,51.1,29.88,NNE,28,0.0,3.0,83,0.08,,SKC,0.08,VWS V14.01,2013-01-26 12:08:00,
2013-01-26 05:13:00,56.0,51.2,29.88,NE,55,3.0,3.0,84,0.09,,SKC,0.09,VWS V14.01,2013-01-26 12:13:00,
2013-01-26 05:15:00,55.9,51.1,29.88,NE,47,0.0,3.0,84,0.10,,SKC,0.10,VWS V14.01,2013-01-26 12:15:00,
2013-01-26 05:18:00,55.9,51.1,29.88,NE,47,0.0,0.0,84,0.09,,SKC,0.10,VWS V14.01,2013-01-26 12:18:00,
2013-01-26 05:23:00,55.9,51.5,29.88,NE,46,0.0,1.0,85,0.10,,SKC,0.11,VWS V14.01,2013-01-26 12:23:00,
2013-01-26 05:28:00,55.8,51.7,29.88,ENE,61,0.0,3.0,86,0.11,,SKC,0.12,VWS V14.01,2013-01-26 12:28:00,
2013-01-26 05:30:00,55.8,51.7,29.88,ENE,68,0.0,3.0,86,0.12,,SKC,0.13,VWS V14.01,2013-01-26 12:30:00,
2013-01-26 05:33:00,55.8,51.7,29.88,ENE,69,0.0,0.0,86,0.09,,SKC,0.13,VWS V14.01,2013-01-26 12:33:00,
2013-01-26 05:38:00,55.8,52.0,29.88,East,79,0.0,1.0,87,0.10,,SKC,0.14,VWS V14.01,2013-01-26 12:38:00,
2013-01-26 05:43:00,55.8,52.0,29.88,East,98,0.0,1.0,87,0.10,,SKC,0.14,VWS V14.01,2013-01-26 12:43:00,
2013-01-26 05:45:00,55.8,52.0,29.88,East,94,0.0,5.0,87,0.10,,SKC,0.14,VWS V14.01,2013-01-26 12:45:00,
2013-01-26 05:48:00,55.8,52.0,29.88,East,94,0.0,0.0,87,0.09,,SKC,0.14,VWS V14.01,2013-01-26 12:48:00,
2013-01-26 05:53:00,55.8,52.0,29.88,East,93,0.0,0.0,87,0.10,,SKC,0.15,VWS V14.01,2013-01-26 12:53:00,
2013-01-26 05:58:00,55.8,52.0,29.88,East,84,2.0,2.0,87,0.11,,SKC,0.16,VWS V14.01,2013-01-26 12:58:00,
2013-01-26 06:00:00,55.8,52.0,29.88,East,84,0.0,2.0,87,0.11,,SKC,0.16,VWS V14.01,2013-01-26 13:00:00,
2013-01-26 06:03:00,55.8,52.3,29.88,East,84,0.0,1.0,88,0.08,,SKC,0.16,VWS V14.01,2013-01-26 13:03:00,
2013-01-26 06:08:00,55.8,52.3,29.88,East,80,2.0,3.0,88,0.08,,SKC,0.16,VWS V14.01,2013-01-26 13:08:00,
2013-01-26 06:13:00,55.9,52.4,29.87,East,86,0.0,4.0,88,0.09,,SKC,0.17,VWS V14.01,2013-01-26 13:13:00,
2013-01-26 06:15:00,55.9,52.4,29.87,East,86,0.0,4.0,88,0.09,,SKC,0.17,VWS V14.01,2013-01-26 13:15:00,
2013-01-26 06:18:00,55.9,52.4,29.87,East,87,0.0,3.0,88,0.07,,SKC,0.17,VWS V14.01,2013-01-26 13:18:00,
2013-01-26 06:23:00,55.9,52.4,29.87,East,88,2.0,3.0,88,0.08,,SKC,0.18,VWS V14.01,2013-01-26 13:23:00,
2013-01-26 06:28:00,56.1,52.6,29.87,East,96,0.0,5.0,88,0.08,,SKC,0.18,VWS V14.01,2013-01-26 13:28:00,
2013-01-26 06:30:00,56.3,52.8,29.87,East,97,0.0,5.0,88,0.09,,SKC,0.19,VWS V14.01,2013-01-26 13:30:00,
2013-01-26 06:34:00,56.5,53.0,29.87,SE,138,0.0,0.0,88,0.06,,SKC,0.19,VWS V14.01,2013-01-26 13:34:00,
2013-01-26 06:39:00,56.9,53.4,29.87,SE,139,0.0,1.0,88,0.07,,SKC,0.20,VWS V14.01,2013-01-26 13:39:00,
2013-01-26 06:44:00,57.2,53.7,29.87,SE,128,0.0,3.0,88,0.08,,SKC,0.21,VWS V14.01,2013-01-26 13:44:00,
2013-01-26 06:45:00,57.4,53.9,29.87,SE,144,3.0,5.0,88,0.09,,SKC,0.22,VWS V14.01,2013-01-26 13:45:00,
2013-01-26 06:49:00,57.5,54.0,29.87,SSE,168,4.0,4.0,88,0.08,,SKC,0.22,VWS V14.01,2013-01-26 13:49:00,
2013-01-26 06:54:00,57.7,54.2,29.87,SE,128,0.0,8.0,88,0.09,,SKC,0.23,VWS V14.01,2013-01-26 13:54:00,
2013-01-26 06:59:00,57.8,54.3,29.87,SE,138,2.0,8.0,88,0.10,,SKC,0.24,VWS V14.01,2013-01-26 13:59:00,
2013-01-26 07:00:00,57.8,54.3,29.87,SSE,151,0.0,8.0,88,0.11,,SKC,0.25,VWS V14.01,2013-01-26 14:00:00,
2013-01-26 07:04:00,57.8,54.3,29.87,ESE,123,0.0,4.0,88,0.10,,SKC,0.26,VWS V14.01,2013-01-26 14:04:00,
2013-01-26 07:09:00,57.8,54.3,29.87,SE,142,3.0,7.0,88,0.10,,SKC,0.26,VWS V14.01,2013-01-26 14:09:00,
2013-01-26 07:14:00,57.9,54.4,29.87,SSE,155,1.0,7.0,88,0.11,,SKC,0.27,VWS V14.01,2013-01-26 14:14:00,
2013-01-26 07:15:00,57.9,54.4,29.87,SE,145,4.0,7.0,88,0.11,,SKC,0.27,VWS V14.01,2013-01-26 14:15:00,
2013-01-26 07:20:00,57.9,54.4,29.87,SE,141,5.0,5.0,88,0.11,,SKC,0.28,VWS V14.01,2013-01-26 14:20:00,
2013-01-26 07:25:00,57.9,54.4,29.87,SE,125,5.0,7.0,88,0.11,,SKC,0.28,VWS V14.01,2013-01-26 14:25:00,
2013-01-26 07:30:00,58.0,54.5,29.87,ESE,110,3.0,12.0,88,0.11,,SKC,0.28,VWS V14.01,2013-01-26 14:30:00,
2013-01-26 07:35:00,58.0,54.5,29.86,SSE,150,5.0,5.0,88,0.10,,SKC,0.29,VWS V14.01,2013-01-26 14:35:00,
2013-01-26 07:40:00,58.1,54.6,29.86,SE,133,0.0,7.0,88,0.10,,SKC,0.29,VWS V14.01,2013-01-26 14:40:00,
2013-01-26 07:45:00,58.1,54.6,29.86,SE,141,1.0,7.0,88,0.10,,SKC,0.29,VWS V14.01,2013-01-26 14:45:00,
2013-01-26 07:50:00,58.1,54.6,29.86,SE,129,3.0,4.0,88,0.07,,SKC,0.29,VWS V14.01,2013-01-26 14:50:00,
2013-01-26 07:55:00,58.1,54.6,29.86,South,169,2.0,6.0,88,0.07,,SKC,0.29,VWS V14.01,2013-01-26 14:55:00,
2013-01-26 08:00:00,58.2,54.7,29.86,SE,129,2.0,6.0,88,0.08,,SKC,0.30,VWS V14.01,2013-01-26 15:00:00,
2013-01-26 08:05:00,58.3,54.8,29.86,SE,142,6.0,6.0,88,0.05,,SKC,0.30,VWS V14.01,2013-01-26 15:05:00,
2013-01-26 08:10:00,58.3,54.8,29.86,SE,128,1.0,9.0,88,0.05,,SKC,0.30,VWS V14.01,2013-01-26 15:10:00,
2013-01-26 08:15:00,58.3,54.8,29.86,SE,144,1.0,9.0,88,0.05,,SKC,0.30,VWS V14.01,2013-01-26 15:15:00,
2013-01-26 08:20:00,58.4,54.9,29.86,SE,142,0.0,6.0,88,0.03,,SKC,0.30,VWS V14.01,2013-01-26 15:20:00,
2013-01-26 08:25:00,58.4,54.9,29.86,SE,146,5.0,8.0,88,0.03,,SKC,0.30,VWS V14.01,2013-01-26 15:25:00,
2013-01-26 08:30:00,58.6,55.1,29.86,SSE,165,3.0,8.0,88,0.03,,SKC,0.30,VWS V14.01,2013-01-26 15:30:00,
2013-01-26 08:35:00,58.8,55.0,29.86,SSE,149,0.0,4.0,87,0.01,,SKC,0.30,VWS V14.01,2013-01-26 15:35:00,
2013-01-26 08:41:00,59.0,55.8,29.87,SE,132,7.0,7.0,89,0.01,,SKC,0.30,VWS V14.01,2013-01-26 15:41:00,
2013-01-26 08:45:00,59.0,54.8,29.86,SE,140,5.0,7.0,86,0.01,,SKC,0.30,VWS V14.01,2013-01-26 15:45:00,
2013-01-26 08:46:00,59.0,54.8,29.86,SSE,159,4.0,7.0,86,0.01,,SKC,0.30,VWS V14.01,2013-01-26 15:46:00,
2013-01-26 08:51:00,59.0,54.8,29.86,SE,140,0.0,6.0,86,0.01,,SKC,0.30,VWS V14.01,2013-01-26 15:51:00,
2013-01-26 08:56:00,59.0,54.8,29.86,SSE,153,2.0,6.0,86,0.01,,SKC,0.30,VWS V14.01,2013-01-26 15:56:00,
2013-01-26 09:00:00,59.4,54.9,29.87,SSE,154,3.0,9.0,85,0.01,,SKC,0.30,VWS V14.01,2013-01-26 16:00:00,
2013-01-26 09:01:00,59.2,54.7,29.87,SSE,150,7.0,9.0,85,0.01,,SKC,0.30,VWS V14.01,2013-01-26 16:01:00,
2013-01-26 09:06:00,59.8,55.0,29.87,South,178,2.0,7.0,84,0.00,,SKC,0.30,VWS V14.01,2013-01-26 16:06:00,
2013-01-26 09:11:00,60.0,54.8,29.87,South,175,2.0,7.0,83,0.00,,SKC,0.30,VWS V14.01,2013-01-26 16:11:00,
2013-01-26 09:15:00,60.2,55.3,29.87,SSE,157,0.0,7.0,84,0.00,,SKC,0.30,VWS V14.01,2013-01-26 16:15:00,
2013-01-26 09:16:00,60.2,55.0,29.87,SSE,157,0.0,7.0,83,0.00,,SKC,0.30,VWS V14.01,2013-01-26 16:16:00,
2013-01-26 09:21:00,60.2,55.3,29.87,South,175,2.0,5.0,84,0.00,,SKC,0.30,VWS V14.01,2013-01-26 16:21:00,
2013-01-26 09:27:00,60.3,55.5,29.87,SSE,155,0.0,5.0,84,0.00,,SKC,0.30,VWS V14.01,2013-01-26 16:27:00,
2013-01-26 09:30:00,60.5,55.7,29.88,South,169,0.0,5.0,84,0.00,,SKC,0.30,VWS V14.01,2013-01-26 16:30:00,
2013-01-26 09:32:00,60.5,55.7,29.88,South,171,0.0,5.0,84,0.00,,SKC,0.30,VWS V14.01,2013-01-26 16:32:00,
2013-01-26 09:37:00,60.6,55.8,29.88,SSE,159,0.0,4.0,84,0.00,,SKC,0.30,VWS V14.01,2013-01-26 16:37:00,
2013-01-26 09:42:00,60.6,56.1,29.88,SSE,161,0.0,4.0,85,0.02,,SKC,0.32,VWS V14.01,2013-01-26 16:42:00,
2013-01-26 09:45:00,60.0,54.8,29.90,NW,314,11.0,17.0,83,0.10,,SKC,0.40,VWS V14.01,2013-01-26 16:45:00,
2013-01-26 09:47:00,60.2,55.7,29.90,North,355,8.0,17.0,85,0.08,,SKC,0.40,VWS V14.01,2013-01-26 16:47:00,
2013-01-26 09:52:00,57.7,52.9,29.89,NW,321,5.0,14.0,84,0.18,,SKC,0.48,VWS V14.01,2013-01-26 16:52:00,
2013-01-26 09:57:00,56.9,53.1,29.89,WNW,299,0.0,14.0,87,0.19,,SKC,0.49,VWS V14.01,2013-01-26 16:57:00,
2013-01-26 10:00:00,56.9,53.4,29.90,WNW,302,0.0,14.0,88,0.20,,SKC,0.50,VWS V14.01,2013-01-26 17:00:00,
2013-01-26 10:02:00,56.9,53.4,29.90,WNW,302,0.0,14.0,88,0.20,,SKC,0.50,VWS V14.01,2013-01-26 17:02:00,
2013-01-26 10:07:00,56.8,53.3,29.90,NW,304,1.0,1.0,88,0.22,,SKC,0.52,VWS V14.01,2013-01-26 17:07:00,
2013-01-26 10:12:00,56.2,52.7,29.90,NNE,30,3.0,5.0,88,0.24,,SKC,0.54,VWS V14.01,2013-01-26 17:12:00,
2013-01-26 10:15:00,55.7,52.2,29.89,NNE,22,2.0,6.0,88,0.24,,SKC,0.54,VWS V14.01,2013-01-26 17:15:00,
2013-01-26 10:17:00,55.7,52.2,29.89,NNE,22,2.0,6.0,88,0.24,,SKC,0.54,VWS V14.01,2013-01-26 17:17:00,
2013-01-26 10:22:00,55.4,52.2,29.90,NNE,21,0.0,5.0,89,0.25,,SKC,0.55,VWS V14.01,2013-01-26 17:22:00,
2013-01-26 10:27:00,55.4,52.2,29.91,NNE,22,0.0,5.0,89,0.25,,SKC,0.55,VWS V14.01,2013-01-26 17:27:00,
2013-01-26 10:30:00,55.5,52.3,29.91,NNE,19,0.0,5.0,89,0.25,,SKC,0.55,VWS V14.01,2013-01-26 17:30:00,
2013-01-26 10:32:00,55.5,52.3,29.91,NNE,19,0.0,0.0,89,0.25,,SKC,0.55,VWS V14.01,2013-01-26 17:32:00,
2013-01-26 10:37:00,55.6,52.4,29.92,NNE,19,0.0,0.0,89,0.25,,SKC,0.55,VWS V14.01,2013-01-26 17:37:00,
2013-01-26 10:42:00,55.6,52.4,29.91,NNE,19,0.0,0.0,89,0.26,,SKC,0.56,VWS V14.01,2013-01-26 17:42:00,
2013-01-26 10:45:00,55.6,52.4,29.91,NNE,19,0.0,0.0,89,0.26,,SKC,0.56,VWS V14.01,2013-01-26 17:45:00,
2013-01-26 10:47:00,55.6,52.4,29.91,NNE,19,0.0,0.0,89,0.16,,SKC,0.56,VWS V14.01,2013-01-26 17:47:00,
2013-01-26 10:53:00,55.9,53.0,29.91,NNE,19,0.0,0.0,90,0.16,,SKC,0.56,VWS V14.01,2013-01-26 17:53:00,
2013-01-26 10:58:00,56.2,53.3,29.92,NNE,24,0.0,0.0,90,0.16,,SKC,0.56,VWS V14.01,2013-01-26 17:58:00,
2013-01-26 11:00:00,56.6,53.7,29.91,East,87,0.0,2.0,90,0.16,,SKC,0.56,VWS V14.01,2013-01-26 18:00:00,
2013-01-26 11:03:00,56.6,53.7,29.91,East,87,0.0,1.0,90,0.06,,SKC,0.56,VWS V14.01,2013-01-26 18:03:00,
2013-01-26 11:08:00,57.1,54.2,29.91,ESE,107,3.0,4.0,90,0.06,,SKC,0.56,VWS V14.01,2013-01-26 18:08:00,
2013-01-26 11:13:00,57.6,54.4,29.91,ESE,108,2.0,4.0,89,0.06,,SKC,0.56,VWS V14.01,2013-01-26 18:13:00,
2013-01-26 11:15:00,58.0,54.8,29.91,ESE,108,0.0,4.0,89,0.06,,SKC,0.56,VWS V14.01,2013-01-26 18:15:00,
2013-01-26 11:18:00,58.1,54.9,29.91,ESE,108,0.0,0.0,89,0.02,,SKC,0.56,VWS V14.01,2013-01-26 18:18:00,
2013-01-26 11:23:00,58.7,55.2,29.91,ESE,121,0.0,1.0,88,0.02,,SKC,0.56,VWS V14.01,2013-01-26 18:23:00,
2013-01-26 11:28:00,59.0,55.1,29.91,South,170,0.0,3.0,87,0.02,,SKC,0.56,VWS V14.01,2013-01-26 18:28:00,
2013-01-26 11:30:00,59.4,55.2,29.91,SW,226,0.0,3.0,86,0.02,,SKC,0.56,VWS V14.01,2013-01-26 18:30:00,
2013-01-26 11:33:00,59.5,54.7,29.91,SW,226,0.0,0.0,84,0.01,,SKC,0.56,VWS V14.01,2013-01-26 18:33:00,
2013-01-26 11:38:00,59.9,55.1,29.91,West,280,0.0,3.0,84,0.01,,SKC,0.56,VWS V14.01,2013-01-26 18:38:00,
2013-01-26 11:43:00,60.6,55.4,29.90,West,263,0.0,5.0,83,0.01,,SKC,0.56,VWS V14.01,2013-01-26 18:43:00,
2013-01-26 11:45:00,61.3,56.1,29.90,WNW,303,1.0,5.0,83,0.01,,SKC,0.56,VWS V14.01,2013-01-26 18:45:00,
2013-01-26 11:48:00,61.4,55.9,29.90,WNW,292,4.0,4.0,82,0.00,,SKC,0.56,VWS V14.01,2013-01-26 18:48:00,
2013-01-26 11:53:00,62.1,55.5,29.90,WSW,250,0.0,5.0,79,0.00,,SKC,0.56,VWS V14.01,2013-01-26 18:53:00,
2013-01-26 11:58:00,63.1,55.8,29.90,West,266,12.0,12.0,77,0.00,,SKC,0.56,VWS V14.01,2013-01-26 18:58:00,
2013-01-26 12:00:00,63.9,55.5,29.90,West,273,13.0,13.0,74,0.00,,SKC,0.56,VWS V14.01,2013-01-26 19:00:00,
2013-01-26 12:03:00,64.2,55.0,29.89,WSW,252,11.0,15.0,72,0.00,,SKC,0.56,VWS V14.01,2013-01-26 19:03:00,
2013-01-26 12:08:00,65.1,55.1,29.89,WSW,245,11.0,15.0,70,0.00,,SKC,0.56,VWS V14.01,2013-01-26 19:08:00,
2013-01-26 12:13:00,65.8,54.5,29.89,WSW,240,20.0,20.0,67,0.00,,SKC,0.56,VWS V14.01,2013-01-26 19:13:00,
2013-01-26 12:15:00,65.8,55.0,29.88,WSW,254,9.0,20.0,68,0.00,,SKC,0.56,VWS V14.01,2013-01-26 19:15:00,
2013-01-26 12:18:00,65.9,54.7,29.88,WSW,241,10.0,12.0,67,0.00,,SKC,0.56,VWS V14.01,2013-01-26 19:18:00,
2013-01-26 12:23:00,66.5,54.4,29.88,West,260,9.0,14.0,65,0.00,,SKC,0.56,VWS V14.01,2013-01-26 19:23:00,
2013-01-26 12:28:00,66.4,52.6,29.88,West,267,14.0,26.0,61,0.00,,SKC,0.56,VWS V14.01,2013-01-26 19:28:00,
2013-01-26 12:30:00,66.4,52.1,29.88,WSW,245,16.0,26.0,60,0.00,,SKC,0.56,VWS V14.01,2013-01-26 19:30:00,
2013-01-26 12:33:00,66.4,52.1,29.88,SW,229,9.0,21.0,60,0.00,,SKC,0.56,VWS V14.01,2013-01-26 19:33:00,
2013-01-26 12:39:00,66.7,52.8,29.88,WNW,286,19.0,21.0,61,0.00,,SKC,0.56,VWS V14.01,2013-01-26 19:39:00,
2013-01-26 12:44:00,67.0,51.8,29.88,SSW,209,15.0,24.0,58,0.00,,SKC,0.56,VWS V14.01,2013-01-26 19:44:00,
2013-01-26 12:45:00,66.9,51.7,29.88,WSW,256,13.0,24.0,58,0.00,,SKC,0.56,VWS V14.01,2013-01-26 19:45:00,
2013-01-26 12:49:00,66.9,51.2,29.87,West,273,8.0,21.0,57,0.00,,SKC,0.56,VWS V14.01,2013-01-26 19:49:00,
2013-01-26 12:54:00,67.0,51.8,29.87,West,269,10.0,23.0,58,0.00,,SKC,0.56,VWS V14.01,2013-01-26 19:54:00,
2013-01-26 12:59:00,67.1,51.8,29.87,SSW,209,10.0,23.0,58,0.00,,SKC,0.56,VWS V14.01,2013-01-26 19:59:00,
2013-01-26 13:00:00,67.1,50.9,29.87,WSW,244,17.0,26.0,56,0.00,,SKC,0.56,VWS V14.01,2013-01-26 20:00:00,
2013-01-26 13:04:00,67.2,50.0,29.87,West,261,12.0,19.0,54,0.00,,SKC,0.56,VWS V14.01,2013-01-26 20:04:00,
2013-01-26 13:09:00,67.2,51.0,29.86,West,267,15.0,23.0,56,0.00,,SKC,0.56,VWS V14.01,2013-01-26 20:09:00,
2013-01-26 13:14:00,67.3,50.6,29.86,WSW,257,13.0,23.0,55,0.00,,SKC,0.56,VWS V14.01,2013-01-26 20:14:00,
2013-01-26 13:15:00,67.4,51.2,29.86,WSW,249,12.0,23.0,56,0.00,,SKC,0.56,VWS V14.01,2013-01-26 20:15:00,
2013-01-26 13:19:00,67.6,50.4,29.86,WSW,245,10.0,17.0,54,0.00,,SKC,0.56,VWS V14.01,2013-01-26 20:19:00,
2013-01-26 13:24:00,67.8,50.6,29.86,WSW,248,9.0,18.0,54,0.00,,SKC,0.56,VWS V14.01,2013-01-26 20:24:00,
2013-01-26 13:29:00,67.8,50.6,29.86,WSW,249,14.0,22.0,54,0.00,,SKC,0.56,VWS V14.01,2013-01-26 20:29:00,
2013-01-26 13:30:00,67.9,50.7,29.86,WSW,248,12.0,22.0,54,0.00,,SKC,0.56,VWS V14.01,2013-01-26 20:30:00,
2013-01-26 13:34:00,67.9,50.7,29.85,WSW,257,8.0,12.0,54,0.00,,SKC,0.56,VWS V14.01,2013-01-26 20:34:00,
2013-01-26 13:39:00,68.2,50.9,29.85,WSW,240,10.0,13.0,54,0.00,,SKC,0.56,VWS V14.01,2013-01-26 20:39:00,
2013-01-26 13:44:00,68.1,48.8,29.85,SW,232,14.0,19.0,50,0.00,,SKC,0.56,VWS V14.01,2013-01-26 20:44:00,
2013-01-26 13:45:00,67.8,49.5,29.85,WSW,240,11.0,21.0,52,0.00,,SKC,0.56,VWS V14.01,2013-01-26 20:45:00,
2013-01-26 13:49:00,67.6,49.4,29.85,WSW,245,13.0,18.0,52,0.00,,SKC,0.56,VWS V14.01,2013-01-26 20:49:00,
2013-01-26 13:54:00,67.8,50.1,29.85,SW,236,12.0,22.0,53,0.00,,SKC,0.56,VWS V14.01,2013-01-26 20:54:00,
2013-01-26 13:59:00,67.4,49.7,29.85,WSW,253,11.0,25.0,53,0.00,,SKC,0.56,VWS V14.01,2013-01-26 20:59:00,
2013-01-26 14:00:00,67.5,49.8,29.85,WSW,249,14.0,25.0,53,0.00,,SKC,0.56,VWS V14.01,2013-01-26 21:00:00,
2013-01-26 14:04:00,67.7,49.5,29.85,West,271,14.0,19.0,52,0.00,,SKC,0.56,VWS V14.01,2013-01-26 21:04:00,
2013-01-26 14:09:00,67.4,49.7,29.85,WSW,238,9.0,20.0,53,0.00,,SKC,0.56,VWS V14.01,2013-01-26 21:09:00,
2013-01-26 14:15:00,67.9,50.2,29.85,SW,219,11.0,20.0,53,0.00,,SKC,0.56,VWS V14.01,2013-01-26 21:15:00,
2013-01-26 14:20:00,68.2,50.4,29.85,WSW,247,12.0,13.0,53,0.00,,SKC,0.56,VWS V14.01,2013-01-26 21:20:00,
2013-01-26 14:25:00,67.3,50.1,29.85,SW,231,17.0,17.0,54,0.00,,SKC,0.56,VWS V14.01,2013-01-26 21:25:00,
2013-01-26 14:30:00,67.6,50.4,29.85,WSW,250,11.0,17.0,54,0.00,,SKC,0.56,VWS V14.01,2013-01-26 21:30:00,
2013-01-26 14:35:00,68.3,50.5,29.85,West,275,9.0,16.0,53,0.00,,SKC,0.56,VWS V14.01,2013-01-26 21:35:00,
2013-01-26 14:40:00,68.4,50.6,29.85,West,271,12.0,16.0,53,0.00,,SKC,0.56,VWS V14.01,2013-01-26 21:40:00,
2013-01-26 14:45:00,68.0,49.7,29.85,WSW,256,3.0,20.0,52,0.00,,SKC,0.56,VWS V14.01,2013-01-26 21:45:00,
2013-01-26 14:50:00,68.3,49.5,29.85,WSW,240,6.0,13.0,51,0.00,,SKC,0.56,VWS V14.01,2013-01-26 21:50:00,
2013-01-26 14:55:00,68.2,49.9,29.85,SSW,199,17.0,17.0,52,0.00,,SKC,0.56,VWS V14.01,2013-01-26 21:55:00,
2013-01-26 15:00:00,68.5,49.7,29.85,West,278,11.0,17.0,51,0.00,,SKC,0.56,VWS V14.01,2013-01-26 22:00:00,
2013-01-26 15:05:00,69.2,49.8,29.86,WSW,251,10.0,12.0,50,0.00,,SKC,0.56,VWS V14.01,2013-01-26 22:05:00,
2013-01-26 15:10:00,69.3,48.8,29.86,WSW,249,12.0,16.0,48,0.00,,SKC,0.56,VWS V14.01,2013-01-26 22:10:00,
2013-01-26 15:15:00,68.5,49.2,29.85,WNW,300,6.0,17.0,50,0.00,,SKC,0.56,VWS V14.01,2013-01-26 22:15:00,
2013-01-26 15:21:00,68.6,49.2,29.85,NW,317,12.0,14.0,50,0.00,,SKC,0.56,VWS V14.01,2013-01-26 22:21:00,
2013-01-26 15:26:00,67.8,49.0,29.85,WNW,284,5.0,14.0,51,0.00,,SKC,0.56,VWS V14.01,2013-01-26 22:26:00,
2013-01-26 15:30:00,67.5,48.8,29.85,West,268,8.0,16.0,51,0.00,,SKC,0.56,VWS V14.01,2013-01-26 22:30:00,
2013-01-26 15:31:00,67.7,48.9,29.85,WSW,258,7.0,16.0,51,0.00,,SKC,0.56,VWS V14.01,2013-01-26 22:31:00,
2013-01-26 15:36:00,67.1,48.9,29.85,WSW,249,8.0,14.0,52,0.00,,SKC,0.56,VWS V14.01,2013-01-26 22:36:00,
2013-01-26 15:41:00,67.0,48.8,29.85,WSW,250,8.0,14.0,52,0.00,,SKC,0.56,VWS V14.01,2013-01-26 22:41:00,
2013-01-26 15:45:00,67.0,48.8,29.85,West,271,11.0,17.0,52,0.00,,SKC,0.56,VWS V14.01,2013-01-26 22:45:00,
2013-01-26 15:46:00,67.0,48.8,29.85,West,279,12.0,17.0,52,0.00,,SKC,0.56,VWS V14.01,2013-01-26 22:46:00,
2013-01-26 15:52:00,66.7,50.0,29.85,North,351,8.0,14.0,55,0.00,,SKC,0.56,VWS V14.01,2013-01-26 22:52:00,
2013-01-26 15:57:00,65.8,50.2,29.85,NW,311,5.0,14.0,57,0.00,,SKC,0.56,VWS V14.01,2013-01-26 22:57:00,
2013-01-26 16:00:00,64.9,49.8,29.85,NNW,343,3.0,14.0,58,0.00,,SKC,0.56,VWS V14.01,2013-01-26 23:00:00,
2013-01-26 16:02:00,65.0,49.9,29.85,NNW,327,5.0,14.0,58,0.00,,SKC,0.56,VWS V14.01,2013-01-26 23:02:00,
2013-01-26 16:07:00,64.5,50.3,29.85,NW,314,4.0,8.0,60,0.00,,SKC,0.56,VWS V14.01,2013-01-26 23:07:00,
2013-01-26 16:12:00,64.1,50.8,29.85,NNW,327,4.0,8.0,62,0.00,,SKC,0.56,VWS V14.01,2013-01-26 23:12:00,
2013-01-26 16:15:00,63.9,50.6,29.86,NW,317,0.0,8.0,62,0.00,,SKC,0.56,VWS V14.01,2013-01-26 23:15:00,
2013-01-26 16:17:00,63.9,50.6,29.86,NW,317,0.0,8.0,62,0.00,,SKC,0.56,VWS V14.01,2013-01-26 23:17:00,
2013-01-26 16:22:00,63.8,50.5,29.86,NNW,328,0.0,5.0,62,0.00,,SKC,0.56,VWS V14.01,2013-01-26 23:22:00,
2013-01-26 16:27:00,64.2,50.9,29.86,NNW,331,0.0,5.0,62,0.00,,SKC,0.56,VWS V14.01,2013-01-26 23:27:00,
2013-01-26 16:30:00,64.3,51.0,29.86,NNE,13,5.0,6.0,62,0.00,,SKC,0.56,VWS V14.01,2013-01-26 23:30:00,
2013-01-26 16:32:00,64.3,51.0,29.86,NE,50,4.0,5.0,62,0.00,,SKC,0.56,VWS V14.01,2013-01-26 23:32:00,
2013-01-26 16:37:00,63.6,51.2,29.86,NNE,32,1.0,9.0,64,0.00,,SKC,0.56,VWS V14.01,2013-01-26 23:37:00,
2013-01-26 16:42:00,62.9,51.4,29.86,NE,55,0.0,9.0,66,0.00,,SKC,0.56,VWS V14.01,2013-01-26 23:42:00,
2013-01-26 16:45:00,62.5,51.0,29.86,NE,48,2.0,9.0,66,0.00,,SKC,0.56,VWS V14.01,2013-01-26 23:45:00,
2013-01-26 16:47:00,62.5,51.0,29.86,NNE,17,7.0,7.0,66,0.00,,SKC,0.56,VWS V14.01,2013-01-26 23:47:00,
2013-01-26 16:53:00,62.3,51.2,29.86,North,360,2.0,7.0,67,0.00,,SKC,0.56,VWS V14.01,2013-01-26 23:53:00,
2013-01-26 16:58:00,62.6,51.1,29.87,NNE,13,0.0,7.0,66,0.00,,SKC,0.56,VWS V14.01,2013-01-26 23:58:00,
2013-01-26 17:00:00,63.0,51.5,29.86,NNE,29,0.0,7.0,66,0.00,,SKC,0.56,VWS V14.01,2013-01-27 00:00:00,
2013-01-26 17:03:00,63.1,51.6,29.86,NNE,26,1.0,1.0,66,0.00,,SKC,0.56,VWS V14.01,2013-01-27 00:03:00,
2013-01-26 17:08:00,63.2,51.2,29.86,NNW,334,2.0,8.0,65,0.00,,SKC,0.56,VWS V14.01,2013-01-27 00:08:00,
2013-01-26 17:13:00,62.9,50.5,29.87,NW,317,0.0,8.0,64,0.00,,SKC,0.56,VWS V14.01,2013-01-27 00:13:00,
2013-01-26 17:15:00,62.8,51.3,29.87,NNW,331,2.0,8.0,66,0.00,,SKC,0.56,VWS V14.01,2013-01-27 00:15:00,
2013-01-26 17:18:00,62.8,51.3,29.87,NNW,335,0.0,2.0,66,0.00,,SKC,0.56,VWS V14.01,2013-01-27 00:18:00,
2013-01-26 17:23:00,62.5,51.4,29.86,NE,38,0.0,2.0,67,0.00,,SKC,0.56,VWS V14.01,2013-01-27 00:23:00,
2013-01-26 17:28:00,62.0,51.3,29.86,NE,53,0.0,2.0,68,0.00,,SKC,0.56,VWS V14.01,2013-01-27 00:28:00,
2013-01-26 17:30:00,61.7,51.0,29.87,ENE,77,0.0,4.0,68,0.00,,SKC,0.56,VWS V14.01,2013-01-27 00:30:00,
2013-01-26 17:33:00,61.7,51.0,29.87,ENE,77,0.0,0.0,68,0.00,,SKC,0.56,VWS V14.01,2013-01-27 00:33:00,
2013-01-26 17:38:00,61.7,51.0,29.87,ENE,76,0.0,1.0,68,0.00,,SKC,0.56,VWS V14.01,2013-01-27 00:38:00,
2013-01-26 17:43:00,61.6,51.3,29.87,East,80,0.0,1.0,69,0.00,,SKC,0.56,VWS V14.01,2013-01-27 00:43:00,
2013-01-26 17:45:00,61.4,51.2,29.87,East,79,0.0,1.0,69,0.00,,SKC,0.56,VWS V14.01,2013-01-27 00:45:00,
2013-01-26 17:48:00,61.4,51.2,29.87,East,79,0.0,0.0,69,0.00,,SKC,0.56,VWS V14.01,2013-01-27 00:48:00,
2013-01-26 17:53:00,61.1,51.6,29.87,East,92,1.0,5.0,71,0.00,,SKC,0.56,VWS V14.01,2013-01-27 00:53:00,
2013-01-26 17:58:00,60.9,51.1,29.88,ESE,104,0.0,5.0,70,0.00,,SKC,0.56,VWS V14.01,2013-01-27 00:58:00,
2013-01-26 18:00:00,61.0,51.2,29.88,ESE,104,0.0,5.0,70,0.00,,SKC,0.56,VWS V14.01,2013-01-27 01:00:00,
2013-01-26 18:03:00,61.0,51.2,29.88,ESE,103,0.0,0.0,70,0.00,,SKC,0.56,VWS V14.01,2013-01-27 01:03:00,
2013-01-26 18:08:00,61.1,51.2,29.88,NE,40,0.0,4.0,70,0.00,,SKC,0.56,VWS V14.01,2013-01-27 01:08:00,
2013-01-26 18:14:00,60.9,51.8,29.88,NE,38,1.0,4.0,72,0.00,,SKC,0.56,VWS V14.01,2013-01-27 01:14:00,
2013-01-26 18:15:00,60.7,51.6,29.88,NE,51,0.0,4.0,72,0.00,,SKC,0.56,VWS V14.01,2013-01-27 01:15:00,
2013-01-26 18:19:00,60.5,51.8,29.88,NE,53,0.0,0.0,73,0.00,,SKC,0.56,VWS V14.01,2013-01-27 01:19:00,
2013-01-26 18:24:00,60.2,51.9,29.89,NE,42,1.0,3.0,74,0.00,,SKC,0.56,VWS V14.01,2013-01-27 01:24:00,
2013-01-26 18:29:00,60.1,51.8,29.89,ENE,62,0.0,3.0,74,0.00,,SKC,0.56,VWS V14.01,2013-01-27 01:29:00,
2013-01-26 18:30:00,60.0,51.7,29.89,NE,49,0.0,3.0,74,0.00,,SKC,0.56,VWS V14.01,2013-01-27 01:30:00,
2013-01-26 18:34:00,60.0,51.7,29.89,NNE,14,4.0,5.0,74,0.00,,SKC,0.56,VWS V14.01,2013-01-27 01:34:00,
2013-01-26 18:39:00,60.4,51.0,29.89,East,101,0.0,5.0,71,0.00,,SKC,0.56,VWS V14.01,2013-01-27 01:39:00,
2013-01-26 18:44:00,60.5,51.4,29.89,North,350,0.0,5.0,72,0.00,,SKC,0.56,VWS V14.01,2013-01-27 01:44:00,
2013-01-26 18:45:00,60.4,51.7,29.90,NNE,32,1.0,5.0,73,0.00,,SKC,0.56,VWS V14.01,2013-01-27 01:45:00,
2013-01-26 18:49:00,60.3,51.6,29.90,North,9,2.0,3.0,73,0.00,,SKC,0.56,VWS V14.01,2013-01-27 01:49:00,
2013-01-26 18:54:00,60.1,51.8,29.90,NE,40,2.0,4.0,74,0.00,,SKC,0.56,VWS V14.01,2013-01-27 01:54:00,
2013-01-26 18:59:00,59.8,51.9,29.90,NE,52,2.0,4.0,75,0.00,,SKC,0.56,VWS V14.01,2013-01-27 01:59:00,
2013-01-26 19:00:00,59.7,51.8,29.90,ENE,67,2.0,4.0,75,0.00,,SKC,0.56,VWS V14.01,2013-01-27 02:00:00,
2013-01-26 19:04:00,59.6,52.0,29.90,ENE,67,2.0,2.0,76,0.00,,SKC,0.56,VWS V14.01,2013-01-27 02:04:00,
2013-01-26 19:09:00,59.3,51.8,29.90,ENE,64,0.0,2.0,76,0.00,,SKC,0.56,VWS V14.01,2013-01-27 02:09:00,
2013-01-26 19:14:00,59.0,51.5,29.90,NE,48,0.0,2.0,76,0.00,,SKC,0.56,VWS V14.01,2013-01-27 02:14:00,
2013-01-26 19:15:00,59.0,51.8,29.90,NE,48,0.0,2.0,77,0.00,,SKC,0.56,VWS V14.01,2013-01-27 02:15:00,
2013-01-26 19:19:00,59.0,51.8,29.90,NE,48,0.0,1.0,77,0.00,,SKC,0.56,VWS V14.01,2013-01-27 02:19:00,
2013-01-26 19:24:00,58.9,51.7,29.90,NE,48,0.0,1.0,77,0.00,,SKC,0.56,VWS V14.01,2013-01-27 02:24:00,
2013-01-26 19:29:00,58.6,51.8,29.91,NE,48,0.0,1.0,78,0.00,,SKC,0.56,VWS V14.01,2013-01-27 02:29:00,
2013-01-26 19:30:00,58.6,51.8,29.91,NE,48,0.0,1.0,78,0.00,,SKC,0.56,VWS V14.01,2013-01-27 02:30:00,
2013-01-26 19:35:00,58.5,51.7,29.91,NNE,32,0.0,5.0,78,0.00,,SKC,0.56,VWS V14.01,2013-01-27 02:35:00,
2013-01-26 19:40:00,58.3,51.8,29.91,NNE,33,2.0,5.0,79,0.00,,SKC,0.56,VWS V14.01,2013-01-27 02:40:00,
2013-01-26 19:45:00,58.2,51.7,29.91,NNE,33,0.0,5.0,79,0.00,,SKC,0.56,VWS V14.01,2013-01-27 02:45:00,
2013-01-26 19:50:00,58.1,52.0,29.92,NNE,26,0.0,4.0,80,0.00,,SKC,0.56,VWS V14.01,2013-01-27 02:50:00,
2013-01-26 19:55:00,58.0,51.9,29.91,NE,41,0.0,6.0,80,0.00,,SKC,0.56,VWS V14.01,2013-01-27 02:55:00,
2013-01-26 20:00:00,57.8,51.7,29.92,NE,35,0.0,6.0,80,0.00,,SKC,0.56,VWS V14.01,2013-01-27 03:00:00,
2013-01-26 20:05:00,57.7,51.9,29.92,NE,37,0.0,2.0,81,0.00,,SKC,0.56,VWS V14.01,2013-01-27 03:05:00,
2013-01-26 20:10:00,57.5,51.7,29.92,ENE,59,1.0,4.0,81,0.00,,SKC,0.56,VWS V14.01,2013-01-27 03:10:00,
2013-01-26 20:15:00,57.4,51.6,29.92,ENE,59,0.0,4.0,81,0.00,,SKC,0.56,VWS V14.01,2013-01-27 03:15:00,
2013-01-26 20:20:00,57.3,51.5,29.92,NE,55,2.0,3.0,81,0.00,,SKC,0.56,VWS V14.01,2013-01-27 03:20:00,
2013-01-26 20:26:00,57.3,51.5,29.92,NE,51,0.0,3.0,81,0.00,,SKC,0.56,VWS V14.01,2013-01-27 03:26:00,
2013-01-26 20:30:00,57.2,51.4,29.92,NE,51,1.0,3.0,81,0.00,,SKC,0.56,VWS V14.01,2013-01-27 03:30:00,
2013-01-26 20:36:00,57.0,51.6,29.92,NE,42,2.0,2.0,82,0.00,,SKC,0.56,VWS V14.01,2013-01-27 03:36:00,
2013-01-26 20:41:00,56.9,51.5,29.93,NE,41,0.0,3.0,82,0.00,,SKC,0.56,VWS V14.01,2013-01-27 03:41:00,
2013-01-26 20:45:00,56.8,51.4,29.93,NE,48,0.0,3.0,82,0.00,,SKC,0.56,VWS V14.01,2013-01-27 03:45:00,
2013-01-26 20:46:00,56.9,51.5,29.93,NE,49,0.0,3.0,82,0.00,,SKC,0.56,VWS V14.01,2013-01-27 03:46:00,
2013-01-26 20:51:00,56.8,51.4,29.93,NE,48,0.0,1.0,82,0.00,,SKC,0.56,VWS V14.01,2013-01-27 03:51:00,
2013-01-26 20:56:00,56.7,51.3,29.93,NE,49,0.0,2.0,82,0.00,,SKC,0.56,VWS V14.01,2013-01-27 03:56:00,
2013-01-26 21:00:00,56.6,51.2,29.93,NE,48,0.0,2.0,82,0.00,,SKC,0.56,VWS V14.01,2013-01-27 04:00:00,
2013-01-26 21:01:00,56.6,51.2,29.93,NE,49,0.0,2.0,82,0.00,,SKC,0.56,VWS V14.01,2013-01-27 04:01:00,
2013-01-26 21:06:00,56.5,51.1,29.93,NE,48,0.0,0.0,82,0.00,,SKC,0.56,VWS V14.01,2013-01-27 04:06:00,
2013-01-26 21:11:00,56.4,51.3,29.94,NE,48,0.0,0.0,83,0.00,,SKC,0.56,VWS V14.01,2013-01-27 04:11:00,
2013-01-26 21:15:00,56.3,51.2,29.94,NNE,27,0.0,2.0,83,0.00,,SKC,0.56,VWS V14.01,2013-01-27 04:15:00,
2013-01-26 21:16:00,56.3,51.2,29.94,NNE,27,0.0,2.0,83,0.00,,SKC,0.56,VWS V14.01,2013-01-27 04:16:00,
2013-01-26 21:21:00,56.3,51.2,29.94,NNE,26,0.0,0.0,83,0.00,,SKC,0.56,VWS V14.01,2013-01-27 04:21:00,
2013-01-26 21:26:00,56.3,51.2,29.94,NNE,27,0.0,1.0,83,0.00,,SKC,0.56,VWS V14.01,2013-01-27 04:26:00,
2013-01-26 21:30:00,56.2,51.1,29.94,NNE,27,0.0,1.0,83,0.00,,SKC,0.56,VWS V14.01,2013-01-27 04:30:00,
2013-01-26 21:31:00,56.3,51.2,29.94,NNE,27,0.0,1.0,83,0.00,,SKC,0.56,VWS V14.01,2013-01-27 04:31:00,
2013-01-26 21:36:00,56.2,51.1,29.95,NNE,27,0.0,1.0,83,0.00,,SKC,0.56,VWS V14.01,2013-01-27 04:36:00,
2013-01-26 21:41:00,56.2,51.1,29.95,NNE,26,0.0,1.0,83,0.00,,SKC,0.56,VWS V14.01,2013-01-27 04:41:00,
2013-01-26 21:45:00,56.2,51.1,29.94,NNE,26,0.0,1.0,83,0.00,,SKC,0.56,VWS V14.01,2013-01-27 04:45:00,
2013-01-26 21:46:00,56.2,51.1,29.95,NNE,26,0.0,1.0,83,0.00,,SKC,0.56,VWS V14.01,2013-01-27 04:46:00,
2013-01-26 21:51:00,56.2,51.1,29.95,NNE,26,0.0,0.0,83,0.00,,SKC,0.56,VWS V14.01,2013-01-27 04:51:00,
2013-01-26 21:56:00,56.1,51.0,29.94,NNE,26,0.0,0.0,83,0.00,,SKC,0.56,VWS V14.01,2013-01-27 04:56:00,
2013-01-26 22:00:00,56.0,50.9,29.95,NNE,26,0.0,0.0,83,0.00,,SKC,0.56,VWS V14.01,2013-01-27 05:00:00,
2013-01-26 22:02:00,56.0,50.9,29.95,NNE,26,0.0,0.0,83,0.00,,SKC,0.56,VWS V14.01,2013-01-27 05:02:00,
2013-01-26 22:04:00,55.9,51.1,29.95,NNE,26,0.0,0.0,84,0.00,,SKC,0.56,VWS V14.01,2013-01-27 05:04:00,
2013-01-26 22:09:00,55.7,51.0,29.95,NNE,26,0.0,0.0,84,0.00,,SKC,0.56,VWS V14.01,2013-01-27 05:09:00,
2013-01-26 22:14:00,55.5,50.8,29.95,NNE,26,0.0,0.0,84,0.00,,SKC,0.56,VWS V14.01,2013-01-27 05:14:00,
2013-01-26 22:15:00,55.4,50.7,29.95,NNE,26,0.0,0.0,84,0.00,,SKC,0.56,VWS V14.01,2013-01-27 05:15:00,
2013-01-26 22:19:00,55.4,50.7,29.95,NNE,26,0.0,0.0,84,0.00,,SKC,0.56,VWS V14.01,2013-01-27 05:19:00,
2013-01-26 22:24:00,55.2,50.5,29.94,NNE,26,0.0,0.0,84,0.00,,SKC,0.56,VWS V14.01,2013-01-27 05:24:00,
2013-01-26 22:30:00,55.1,50.7,29.94,NE,36,0.0,0.0,85,0.00,,SKC,0.56,VWS V14.01,2013-01-27 05:30:00,
2013-01-26 22:35:00,55.0,50.6,29.95,NE,50,0.0,0.0,85,0.00,,SKC,0.56,VWS V14.01,2013-01-27 05:35:00,
2013-01-26 22:39:00,54.8,50.4,29.95,NE,50,0.0,0.0,85,0.00,,SKC,0.56,VWS V14.01,2013-01-27 05:39:00,
2013-01-26 22:45:00,54.6,50.2,29.95,NE,49,0.0,0.0,85,0.00,,SKC,0.56,VWS V14.01,2013-01-27 05:45:00,
2013-01-26 22:50:00,54.5,50.4,29.95,NE,50,0.0,0.0,86,0.00,,SKC,0.56,VWS V14.01,2013-01-27 05:50:00,
2013-01-26 22:55:00,54.4,50.3,29.95,NE,50,0.0,0.0,86,0.00,,SKC,0.56,VWS V14.01,2013-01-27 05:55:00,
2013-01-26 23:00:00,54.1,50.0,29.95,NE,50,0.0,0.0,86,0.00,,SKC,0.56,VWS V14.01,2013-01-27 06:00:00,
2013-01-26 23:05:00,53.9,49.8,29.95,NE,50,0.0,0.0,86,0.00,,SKC,0.56,VWS V14.01,2013-01-27 06:05:00,
2013-01-26 23:10:00,53.7,49.6,29.95,NE,49,0.0,0.0,86,0.00,,SKC,0.56,VWS V14.01,2013-01-27 06:10:00,
2013-01-26 23:15:00,53.3,49.5,29.96,NE,50,0.0,0.0,87,0.00,,SKC,0.56,VWS V14.01,2013-01-27 06:15:00,
2013-01-26 23:20:00,53.3,49.5,29.96,NE,49,0.0,0.0,87,0.00,,SKC,0.56,VWS V14.01,2013-01-27 06:20:00,
2013-01-26 23:26:00,53.2,49.4,29.96,NE,50,0.0,0.0,87,0.00,,SKC,0.56,VWS V14.01,2013-01-27 06:26:00,
2013-01-26 23:30:00,53.3,49.8,29.96,NE,53,0.0,0.0,88,0.00,,SKC,0.56,VWS V14.01,2013-01-27 06:30:00,
2013-01-26 23:31:00,53.3,49.8,29.96,NE,53,0.0,0.0,88,0.00,,SKC,0.56,VWS V14.01,2013-01-27 06:31:00,
2013-01-26 23:36:00,53.3,49.8,29.96,ENE,60,0.0,0.0,88,0.00,,SKC,0.56,VWS V14.01,2013-01-27 06:36:00,
2013-01-26 23:41:00,53.4,49.9,29.96,ENE,64,0.0,1.0,88,0.00,,SKC,0.56,VWS V14.01,2013-01-27 06:41:00,
2013-01-26 23:45:00,53.3,49.8,29.96,ENE,65,0.0,1.0,88,0.00,,SKC,0.56,VWS V14.01,2013-01-27 06:45:00,
2013-01-26 23:46:00,53.3,49.8,29.96,ENE,64,0.0,1.0,88,0.00,,SKC,0.56,VWS V14.01,2013-01-27 06:46:00,
2013-01-26 23:51:00,53.3,49.8,29.96,ENE,65,0.0,0.0,88,0.00,,SKC,0.56,VWS V14.01,2013-01-27 06:51:00,
2013-01-26 23:56:00,53.2,49.7,29.96,ENE,65,0.0,0.0,88,0.00,,SKC,0.56,VWS V14.01,2013-01-27 06:56:00,